Regional Weather Roundup
Issued by NWS Charleston, SC

Current Version | Previous Version | Graphics & Text | Print | Product List | Glossary On
Versions: 1 2 3 4 5 6 7 8 9 10 11 12 13 14 15 16 17 18 19 20 21 22 23 24 25 26 27 28 29 30 31 32 33 34 35 36 37 38 39 40 41 42 43 44 45 46 47 48 49 50
000
ASUS42 KCHS 252311
RWRCHS

REGIONAL WEATHER ROUNDUP
NATIONAL WEATHER SERVICE CHARLESTON SC
600 PM EST SAT FEB 25 2017

NOTE: "FAIR" INDICATES FEW OR NO CLOUDS BELOW 12,000 FEET WITH NO
SIGNIFICANT WEATHER AND/OR OBSTRUCTIONS TO VISIBILITY.

NOT ALL STATIONS ARE QUALITY CONTROLLED. USE DATA WITH CAUTION...
ESPECIALLY DEWPOINT OBSERVATIONS.

SCZ027-030-031-034>040-042>050-260000-
...SOUTHEAST SOUTH CAROLINA...

CITY           SKY/WX    TMP DP  RH WIND       PRES   REMARKS
N CHARLESTON   PTCLDY    75  54  47 SW14G21   29.74R
WATERFRONT PRK   N/A     71  63  75 SW7       29.73R
MOUNT PLEASANT FAIR      72  61  68 S8        29.75R
JOHNS ISLAND   FAIR      70  61  73 S10       29.76R
PINOPOLIS        N/A    N/A N/A N/A SW10G20   29.64S
MONCKS CORNER  FAIR      73  52  46 SW8       29.73R
SUMMERVILLE    FAIR      73  54  49 SW8       29.75R
BEAUFORT MCAS  CLEAR     76  54  46 W12       29.77R
BEAUFORT ARPT  FAIR      73  55  53 SW10G20   29.77R
HILTON HEAD IS NOT AVBL
WALTERBORO     CLEAR     73  46  38 W9        29.76R
ALLENDALE      FAIR      73  25  16 W8G16     29.77R

...SOUTHERN MIDLANDS AND PEE DEE...

CITY           SKY/WX    TMP DP  RH WIND       PRES   REMARKS
GEORGETOWN     FAIR      70  61  73 S8        29.73R
KINGSTREE      FAIR      73  50  43 SW8       29.70R
ORANGEBURG     CLEAR     74  28  18 W21G28    29.75R
BARNWELL       FAIR      73  27  17 W12G20    29.78R
AIKEN          FAIR      66  23  19 W17       29.83R
MANNING        FAIR      73  45  35 MISG      29.72R
COLUMBIA       CLEAR     70  19  14 W25       29.76R
SUMTER         CLEAR     73  22  15 W17G30    29.70R
FLORENCE       PTCLDY    75  43  31 W17G28    29.67R
MYRTLE BEACH   PTCLDY    70  61  73 S12       29.69F
N MYRTLE BEACH CLEAR     64  60  87 SW18      29.69R

$$

GAZ063-065-086>088-099>101-113>116-118-119-134>141-150-260000-
...SOUTHEAST GEORGIA...

CITY           SKY/WX    TMP DP  RH WIND       PRES   REMARKS
SAVANNAH ARPT  PTCLDY    76  47  35 W16       29.79R
HUNTER AAF     CLEAR     76  61  60 W7        29.77R
FORT STEWART   CLEAR     75  49  39 SW8       29.78S
STATESBORO     CLEAR     74  38  27 W10G17    29.81R
SYLVANIA       CLEAR    N/A N/A N/A NW9       29.81R
CLAXTON        FAIR      73  38  27 SW7G17    29.82R

...CSRA...CENTRAL AND FAR SOUTHEAST GEORGIA...

CITY           SKY/WX    TMP DP  RH WIND       PRES   REMARKS
THOMSON        CLEAR     67  26  21 NW8       29.89R
AUGUSTA-BUSH   CLEAR     71  21  15 NW14G23   29.80R
AUGUSTA-DANIEL CLEAR     69  12  11 W13       29.83R
SWAINSBORO     FAIR      72  21  15 NW18      29.84R
VIDALIA        CLEAR     73  37  27 W6        29.84R
EASTMAN        FAIR     N/A N/A N/A NW6       29.89R
HAZLEHURST     FAIR      74  32  21 W6        29.85R
ALMA           CLEAR     74  33  22 W7        29.84R
WAYCROSS       CLEAR     77  42  28 W10G16    29.84R
JESUP          FAIR      77  43  29 W5        29.82S
BAXLEY         FAIR      73  37  27 W9        29.84R
BRUNSWICK      PTCLDY    75  61  60 W13       29.83R
SAINT SIMONS   CLEAR     76  57  51 W10       29.82R

$$

SCZ027-028-034-036>038-045-046-048>050-GAZ119-141-260000-
...LAKE AND SUPPLEMENTAL COASTAL OBSERVATIONS...

STATION/POSITION TIME  TEMP    WIND        PRES    WAVE   SWELL
                       AIR SEA DIR/SP/G            HT/PER HT/PER/DIR
                 (UTC) (F)     (DEG/KT/KT) (MB)    (FT/S) (FT/S/D)
WINYAH BAY       2145   72     210/ 12     1006.0
LAKE MURRAY      2220   70     250/ 17/ 29 1006.8R
ACE BASIN NERRS  NOT AVBL
FORT PULASKI     2248      64  260/  9/ 15 1008.8R
SAPELO ISLAND    2200   77     250/ 14     1009.0

$$

ANZ835-935-AMZ111-154-330-350-352-354-370-450-454-472-260000-
...C-MAN AND BUOY OBSERVATIONS...

STATION/POSITION TIME  TEMP    WIND        PRES    WAVE   SWELL
                       AIR SEA DIR/SP/G            HT/PER HT/PER/DIR
                 (UTC) (F)     (DEG/KT/KT) (MB)    (FT/S) (FT/S/D)
BUOY 41004       2150   71 71  220/ 19/ 21 1007.2    6/10   3/120/10
BUOY 41008       2150   67 63  190/  8/ 10 1009.0    4/10   3/ 50/10
FOLLY BEACH CMAN 2200   65     220/ 14/ 16 1008.1F
CAPERS NEARSHORE 2208   64 61  220/ 17/ 23 1007.0S
FRIPP NEARSHORE  2208   66 63  210/ 10/ 14 1007.8R


STATION/POSITION TIME  TEMP    WIND        PRES    WAVE   SWELL
                       AIR SEA DIR/SP/G            HT/PER HT/PER/DIR
                 (UTC) (F)     (DEG/KT/KT) (MB)    (FT/S) (FT/S/D)
5E ST. MARYS GA  2230      67                N/A     3/10   2/100/11
FRYING PAN BUOY  2250   72 72  220/ 23/ 29 1006.0R   7/11   5/120/11
BUOY 41025       2250   73 76  210/ 25/ 33 1003.5F   8/10   7/120/10
CAPE LOOKOUT NC  2200   71     200/ 20/ 24 1004.2F
BUOY 41002       2250   71 71  240/ 12/ 14 1009.9R   7/10   7/100/10
BUOY 41010       NOT AVBL
ST AUGUSTINE FL  2300   78 68  300/  3/  4 1011.6R


$$




USA.gov is the U.S. government's official web portal to all federal, state and local government web resources and services.